Wappingers Falls, NY

8:08 PM EST on February 27, 2017 (GMT -0500)
Dutchess County

Weather History for KPOU - April, 2012

Change the Weather History Date:

Friday, April 20, 2012

  Actual Average Record
Temperature  
Mean Temperature 60 °F 50 °F  
Max Temperature 76 °F 63 °F 86 °F (2005)
Min Temperature 44 °F 38 °F 24 °F (1961)
Degree Days  
Heating Degree Days 5 15  
Month to date heating degree days 277 365  
Since 1 July heating degree days 4485 5810  
Cooling Degree Days 0 0  
Month to date cooling degree days 7 0  
Year to date cooling degree days 7 0  
Growing Degree Days 10 (Base 50)    
Moisture  
Dew Point 45 °F    
Average Humidity 64    
Maximum Humidity 92    
Minimum Humidity 35    
Precipitation  
Precipitation 0.00 in 0.11 in 1.39 in (1972)
Month to date precipitation 0.26 2.53  
Year to date precipitation 5.06 11.84  
Sea Level Pressure  
Sea Level Pressure 29.93 in    
Wind  
Wind Speed 5 mph (South)    
Max Wind Speed 17 mph    
Max Gust Speed 26 mph    
Visibility 10 miles    
Events      
T = Trace of Precipitation, MM = Missing Value Source: NWS Daily Summary

Daily Weather History Graph

Daily Weather History Graph

Search for Another Location

Airport or City:

Trip Planner

Search our weather history database for the weather conditions in past years. The results will help you decide how hot, cold, wet, or windy it might be!

Date:

Astronomy

Apr. 20, 2012 Rise Set
Actual Time 6:07 AM EDT 7:42 PM EDT
Civil Twilight 5:37 AM EDT 8:11 PM EDT
Nautical Twilight 5:02 AM EDT 8:46 PM EDT
Astronomical Twilight 4:25 AM EDT 9:24 PM EDT
Moon 5:29 AM EDT (4/20) 7:24 PM EDT (4/20)
Length of Visible Light 14h 33m
Length of Day
13h 34m
Waning Crescent, 0% of the Moon is Illuminated
Apr 20
Waning Crescent
Apr 21
New
Apr 29
First Quarter
May 5
Full
May 12
Last Quarter

Hourly Weather History & Observations

Time (EDT) Temp. Dew Point Humidity Pressure Visibility Wind Dir Wind Speed Gust Speed Precip Events Conditions
12:53 AM 52.0 °F 45.0 °F 77% 30.00 in 10.0 mi Calm Calm - N/A   Clear
1:53 AM 48.9 °F 43.0 °F 80% 29.98 in 10.0 mi Calm Calm - N/A   Clear
2:53 AM 48.0 °F 44.1 °F 86% 29.97 in 10.0 mi Calm Calm - N/A   Clear
3:53 AM 46.0 °F 42.1 °F 86% 29.97 in 10.0 mi Calm Calm - N/A   Clear
4:53 AM 46.0 °F 43.0 °F 89% 29.96 in 10.0 mi Calm Calm - N/A   Clear
5:53 AM 46.0 °F 42.1 °F 86% 29.96 in 10.0 mi Calm Calm - N/A   Clear
6:53 AM 45.0 °F 42.1 °F 90% 29.98 in 6.0 mi Calm Calm - N/A   Clear
7:53 AM 55.0 °F 48.0 °F 77% 29.98 in 10.0 mi Calm Calm - N/A   Clear
8:53 AM 60.1 °F 46.9 °F 62% 29.98 in 10.0 mi Calm Calm - N/A   Clear
9:53 AM 64.9 °F 46.9 °F 52% 29.99 in 10.0 mi South 5.8 mph - N/A   Clear
10:53 AM 71.1 °F 43.0 °F 36% 29.96 in 10.0 mi SW 8.1 mph - N/A   Clear
11:53 AM 72.0 °F 42.1 °F 34% 29.96 in 10.0 mi Variable 6.9 mph - N/A   Clear
12:53 PM 73.0 °F 45.0 °F 37% 29.95 in 10.0 mi South 8.1 mph 19.6 mph N/A   Clear
1:53 PM 75.0 °F 46.9 °F 37% 29.93 in 10.0 mi SSW 6.9 mph 17.3 mph N/A   Partly Cloudy
2:53 PM 73.9 °F 46.9 °F 38% 29.90 in 10.0 mi South 9.2 mph 24.2 mph N/A   Partly Cloudy
3:53 PM 75.0 °F 48.9 °F 40% 29.87 in 10.0 mi SSW 10.4 mph 23.0 mph N/A   Mostly Cloudy
4:53 PM 72.0 °F 51.1 °F 48% 29.87 in 10.0 mi South 11.5 mph 18.4 mph N/A   Mostly Cloudy
5:53 PM 70.0 °F 48.9 °F 47% 29.86 in 10.0 mi SSE 12.7 mph 23.0 mph N/A   Clear
6:53 PM 66.0 °F 48.0 °F 52% 29.86 in 10.0 mi SSE 9.2 mph - N/A   Mostly Cloudy
7:53 PM 64.9 °F 39.9 °F 40% 29.88 in 10.0 mi South 4.6 mph - N/A   Mostly Cloudy
8:53 PM 63.0 °F 41.0 °F 45% 29.87 in 10.0 mi SSE 9.2 mph - N/A   Scattered Clouds
9:53 PM 62.1 °F 41.0 °F 46% 29.86 in 10.0 mi South 4.6 mph - N/A   Clear
10:53 PM 60.1 °F 42.1 °F 51% 29.85 in 10.0 mi SSE 4.6 mph - N/A   Partly Cloudy
11:53 PM 57.9 °F 46.0 °F 65% 29.84 in 10.0 mi SSE 6.9 mph - N/A   Scattered Clouds